Regional Weather Roundup
Issued by NWS Cleveland, OH

Home | Current Version | Previous Version | Graphics & Text | Print | Product List | Glossary On
Versions: 1 2 3 4 5 6 7 8 9 10 11 12 13 14 15 16 17 18 19 20 21 22 23 24 25 26 27 28 29 30 31 32 33 34 35 36 37 38 39 40 41 42 43 44 45 46 47 48 49 50
000
ASUS41 KCLE 191710
RWRCLE
OHIO REGIONAL WEATHER ROUNDUP
NATIONAL WEATHER SERVICE WILMINGTON, OH
1200 PM EST SUN NOV 19 2017

NOTE: "FAIR" INDICATES FEW OR NO CLOUDS BELOW 12,000 FEET WITH NO
SIGNIFICANT WEATHER AND/OR OBSTRUCTIONS TO VISIBILITY.

OHZ001>008-015>018-024>027-034-035-043-044-191800-
   NORTHWEST OHIO

CITY           SKY/WX    TMP DP  RH WIND       PRES   REMARKS
DEFIANCE       FLURRIES  36  27  69 W10G18    29.93S
FINDLAY        CLOUDY    38  28  67 W22G33    29.90S
TOLEDO EXPRESS CLOUDY    39  27  62 W22G32    29.89S
TOLEDO EXEC    CLOUDY    39  29  67 W16       29.88F
LIMA           NOT AVBL
$$

OHZ009>014-019>023-028>033-038-089-191800-
   NORTHEAST OHIO

CITY           SKY/WX    TMP DP  RH WIND       PRES   REMARKS
CLE-HOPKINS    FLURRIES  37  31  78 W18       29.86S
CLE-LAKEFRONT  CLOUDY    40  29  64 W22G32    29.82S
CUY CO. ARPT   FLURRIES  39  28  65 NW20G25   29.82S
LORAIN-ELYRIA  CLOUDY    38  25  59 NW16G22   29.86S
ASHTABULA      FLURRIES  34  32  92 W9        29.79S WCI  27
AKRON-CANTON   CLOUDY    39  26  59 W16G25    29.82F
WOOSTER        CLOUDY    37  29  72 NW14G24   29.85S
MANSFIELD      CLOUDY    36  30  79 W13G22    29.86S
YOUNGSTOWN     LGT SNOW  35  30  82 W16G22    29.79S WCI  25
$$

OHZ042-051>053-060>062-070>072-077>081-191800-
  SOUTHWEST OHIO

CITY           SKY/WX    TMP DP  RH WIND       PRES   REMARKS
CINC-COVINGTON CLOUDY    36  28  73 NW20      30.04R
CINC-LUNKEN    CLOUDY    39  29  67 W20G28    30.06R
HAMILTON       CLOUDY    38  30  73 W12G20    30.05S
DAYTON         CLOUDY    36  31  82 W20G26    29.98F
WRIGHT-PAT AFB CLOUDY    38  31  78 W17G23    29.97S
DAYTON GENERAL CLOUDY    37  29  72 W15G24    29.99S
WILMINGTON     LGT RAIN  36  33  89 W15       29.98R
$$

OHZ036-037-039>041-045>050-054>059-063>069-073>076-082>088-191800-
  CENTRAL AND SOUTHEAST OHIO

CITY           SKY/WX    TMP DP  RH WIND       PRES   REMARKS
COLUMBUS       CLOUDY    41  32  70 W17       29.92R
OSU AIRPORT    CLOUDY    40  33  76 W17G26    29.92S
BOLTON FIELD   CLOUDY    39  32  75 W13G20    29.95R
RICKENBACK AFB CLOUDY    39  32  75 W17G25    29.94S
NEWARK         CLOUDY    42  31  64 W16G23    29.90S
MARION         CLOUDY    39  32  76 W10G22    29.90S
LANCASTER      CLOUDY    40  32  73 W13G26    29.93S
ZANESVILLE     CLOUDY    38  33  82 W10       29.89S
NEW PHILLY     CLOUDY    40  29  64 NW9G16    29.87S
$$




USA.gov is the U.S. government's official web portal to all federal, state and local government web resources and services.